www.pogodaiklimat.ru
ПОГОДА в Флиссингене
Время
(UTC), дата
22 20.02
23 20.02
00 21.02
02 21.02
01 21.02
03 21.02
04 21.02
05 21.02
06 21.02
08 21.02
07 21.02
09 21.02
10 21.02
11 21.02
12 21.02
14 21.02
13 21.02
15 21.02
16 21.02
17 21.02
18 21.02
20 21.02
19 21.02
21 21.02
22 21.02
23 21.02
00 22.02
02 22.02
01 22.02
03 22.02
04 22.02
05 22.02
06 22.02
08 22.02
07 22.02
09 22.02
10 22.02
11 22.02
12 22.02
14 22.02
13 22.02
15 22.02
16 22.02
17 22.02
18 22.02
20 22.02
19 22.02
21 22.02
22 22.02
23 22.02
00 23.02
02 23.02
01 23.02
03 23.02
04 23.02
05 23.02
06 23.02
08 23.02
07 23.02
09 23.02
10 23.02
11 23.02
12 23.02
14 23.02
13 23.02
15 23.02
16 23.02
17 23.02
18 23.02
20 23.02
19 23.02
21 23.02
22 23.02
23 23.02
00 24.02
02 24.02
01 24.02
03 24.02
04 24.02
05 24.02
06 24.02
08 24.02
07 24.02
09 24.02
10 24.02
11 24.02
12 24.02
14 24.02
13 24.02
15 24.02
16 24.02
17 24.02
18 24.02
20 24.02
19 24.02
21 24.02
22 24.02
23 24.02
00 25.02
02 25.02
01 25.02
03 25.02
04 25.02
05 25.02
06 25.02
08 25.02
07 25.02
09 25.02
10 25.02
11 25.02
12 25.02
14 25.02
13 25.02
15 25.02
16 25.02
17 25.02
18 25.02
20 25.02
19 25.02
21 25.02
22 25.02
23 25.02
00 26.02
02 26.02
01 26.02
03 26.02
04 26.02
05 26.02
06 26.02
08 26.02
07 26.02
09 26.02
10 26.02
11 26.02
12 26.02
14 26.02
13 26.02
15 26.02
16 26.02
17 26.02
18 26.02
20 26.02
19 26.02
21 26.02
22 26.02
23 26.02
00 27.02
02 27.02
01 27.02
03 27.02
04 27.02
05 27.02
06 27.02
08 27.02
07 27.02
09 27.02
10 27.02
11 27.02
12 27.02
14 27.02
13 27.02
15 27.02
16 27.02
17 27.02
18 27.02
20 27.02
19 27.02
21 27.02
22 27.02
23 27.02
Ветер
(напр.,м/с)
Видим. Явления Облачность Т
(С)
Тd
(С)
f
(%)
Тe
(С)
Тes
(С)
Комфортность P
(гПа)
Po
(гПа)
Тmin
(С)
Tmax
(С)
R
(мм)
R24
(мм)
S
(см)
З 13-17
{18}
22 км {ливн. осадки, дождь} 4/4 1000 м
[]
+7.1 -0.4 59 +1 +1 1017.6 1016.4
З 11-16
{16}
16 км {ливн. осадки, дождь} 1/1 1000 м
[]
+6.9 +0.3 63 +1 +1 1019.1 1017.8
З 11-15
{19}
15 км {ливн. осадки, дождь} 1/1 1050 м
[]
+7.0 -0.5 59 +2 +2 1019.8 1018.5
З 10-14
{16}
11 км 1/1 600 м
[]
+6.7 +1.3 68 +1 +1 1021.6 1020.4
З 11-15
{16}
15 км 9/9
[]
+6.9 +1.1 67 +1 +1 1020.9 1019.6
З 10-14
{16}
15 км 5/5 800 м
[]
+6.8 +1.4 68 +1 +1 1022.4 1021.2
З 11 13 км 10/10
[]
+7.0 +2.2 71 +1 +1 1023.0 1021.7
З 10 13 км 10/10
[]
+7.0 +2.6 74 +2 +2 1023.4 1022.1
З 9-12
{15}
11 км 9/8 660 м
[]
+6.2 +2.7 78 +1 +1 1024.0 1022.7 +3.8 7.3
ЮЗ 8 14 км 10/10
[]
+5.1 +2.8 85 -1 -1 1025.1 1023.8
ЮЗ 8 13 км 3/1 600 м
[]
+5.2 +2.6 83 -1 -1 1024.4 1023.2
ЮЗ 8-9
{11}
13 км 10/6
[]
+6.1 +3.5 83 +1 +1 1025.0 1023.8
ЮЗ 10 11 км 10/10
[]
+7.6 +4.2 79 +2 +2 1025.4 1024.2
ЮЗ 10 12 км 10/10
[]
+8.3 +4.4 76 +3 +3 1025.4 1024.3
ЮЗ 10-13
{14}
12 км 10/10
[]
+8.5 +4.8 78 +4 +4 1025.4 1024.2
ЮЗ 12 14 км 10/9 600 м
[]
+8.7 +5.1 78 +3 +3 1024.2 1023.0
ЮЗ 11 15 км 10/10
[]
+8.7 +5.2 79 +4 +4 1024.7 1023.5
ЮЗ 12-15
{16}
14 км 10/10 630 м
[]
+8.8 +4.8 76 +4 +4 1024.0 1022.8
ЮЗ 11 14 км 10/10 600 м
[]
+8.8 +4.8 76 +4 +4 1023.6 1022.4
ЮЗ 11 15 км 10/10 600 м
[]
+8.8 +4.5 74 +4 +4 1023.5 1022.4
ЮЗ 12-14
{15}
16 км 10/10 800 м
[]
+8.6 +4.4 75 +3 +3 1023.5 1022.3 +9.0
ЮЗ 12 15 км 10/10 1000 м
[]
+8.5 +4.6 76 +3 +3 1022.8 1021.7
ЮЗ 12 14 км 10/10 1000 м
[]
+8.6 +4.4 75 +3 +3 1023.5 1022.4
ЮЗ 13-16
{16}
15 км 10/10 800 м
[]
+8.7 +4.6 75 +3 +3 1022.1 1021.0
ЮЗ 12-14
{15}
20 км 10/10 600 м
[]
+8.5 +4.4 75 +3 +3 1021.8 1020.5
ЮЗ 12-15
{17}
16 км 10/10 600 м
[]
+8.4 +4.5 76 +3 +3 1021.1 1020.0
ЮЗ 12-14
{17}
11 км 10/10 720 м
[]
+8.1 +4.5 78 +3 +3 1021.0 1019.9
ЮЗ 11-14
{14}
17 км 10/10 300 м
[]
+7.7 +4.8 82 +2 +2 1019.2 1018.1
ЮЗ 13-16
{16}
16 км 10/10 600 м
[]
+8.5 +4.8 78 +3 +3 1019.9 1018.8
ЮЗ 11-13
{16}
15 км 10/3 570 м
[]
+7.4 +4.6 82 +2 +2 1018.9 1017.7
ЮЗ 12 17 км 10/10
[]
+7.2 +4.3 82 +1 +1 1018.3 1017.1
ЮЗ 13 17 км 10/10
[]
+7.3 +3.7 78 +1 +1 1018.0 1016.6
ЮЗ 14-17
{17}
17 км 10/10
[]
+7.7 +3.0 72 +2 +2 1018.0 1016.5 +7.2
ЮЗ 15 13 км слаб. морось 10/10
[]
+7.5 +3.7 77 +1 +1 1017.6 1016.3
ЮЗ 14 15 км 10/10
[]
+7.5 +3.0 73 +1 +1 1017.5 1016.4
ЮЗ 14-18
{19}
13 км в посл. час морось 10/10 500 м
[]
+8.3 +4.8 79 +2 +2 1017.6 1016.5
ЮЗ 16 11 км 10/10 300 м
[]
+9.1 +6.1 81 +3 +3 1017.7 1016.0
ЮЗ 14 9000 м дым {морось} 10/10 300 м
[]
+9.6 +6.9 83 +4 +4 1018.2 1017.0
ЮЗ 15-20
{22}
5000 м дымка 10/10 240 м
[]
+9.5 +8.1 91 +4 +4 1018.7 1017.6
ЮЗ 16 8000 м дымка 10/10 300 м
[]
+10.4 +8.5 88 +5 +5 1018.5 1017.3
ЮЗ 14 8000 м дымка 10/10 300 м
[]
+10.0 +8.3 89 +5 +5 1019.0 1017.6
ЮЗ 13-18
{21}
10 км 10/10 400 м
[]
+10.3 +8.1 86 +5 +5 1018.7 1017.5
ЮЗ 15 10 км 10/10 300 м
[]
+10.5 +8.4 87 +5 +5 1018.8 1017.7
З 14 9000 м дымка 10/9 600 м
[]
+10.2 +7.9 86 +5 +5 1019.4 1018.3
З 15-19
{19}
5000 м слаб. ливневой дождь 10/10 840 м
[]
+10.0 +7.6 85 +5 +5 1020.4 1019.0 +10.8
ЮЗ 12 7000 м в посл. час дождь {ливн. осадки, морось} 10/10 1500 м
[]
+9.7 +7.7 87 +5 +5 1020.9 1019.7
З 14 5000 м слаб. ливневой дождь {морось} 10/6 1000 м
[]
+9.5 +7.7 89 +4 +4 1020.8 1019.6 0.5
ЮЗ 15-17
{18}
6000 м дымка {ливн. осадки} 10/10 500 м
[]
+9.6 +7.4 86 +4 +4 1020.5 1019.5
З 15-18
{18}
7000 м дымка {ливн. осадки} 10/10 1500 м
[]
+9.5 +6.9 84 +4 +4 1021.1 1019.8
ЮЗ 15-19
{19}
7000 м дымка {ливн. осадки} 10/10 1000 м
[]
+9.7 +6.7 82 +4 +4 1020.9 1019.7
З 14-17
{19}
6000 м дымка {ливн. осадки} 10/10 1080 м
[]
+9.2 +7.3 88 +4 +4 1020.9 1019.9
ЮЗ 11-13
{16}
7000 м морось {дождь, дымка} 10/8 1000 м
[]
+9.2 +7.1 87 +4 +4 1019.8 1018.6 0.1
ЮЗ 12-15
{16}
6000 м слаб. морось с дождем {дымка} 10/10 1500 м
[]
+9.0 +7.1 88 +4 +4 1020.6 1019.4
ЮЗ 10-13
{16}
5000 м дождь {морось} 10/10 360 м
[]
+8.9 +7.6 92 +4 +4 1018.4 1017.4 0.8
ЮЗ 9 7000 м дождь {морось} 10/6 1000 м
[]
+8.8 +7.6 92 +4 +4 1017.0 1016.2 0.5
Ю 8 2500 м дождь {морось} 10/9 200 м
[]
+8.5 +7.9 96 +4 +4 1014.0 1013.2 2
ЮЗ 15-19
{20}
3600 м морось {дождь, дымка} 10 баллов +10.1 +9.4 95 +5 +5 1012.0 1011.0 +8.3 0.6 4.5
ЮЗ 22 9000 м дымка {дождь} 10/10 300 м
[]
+12.0 +9.2 83 +7 +7 1009.9 1008.8
ЮЗ 17 14 км в посл. час дождь {морось} 10/10 300 м
[]
+11.3 +9.7 90 +6 +6 1010.4 1009.4
ЮЗ 25-31
{31}
5000 м дымка {дождь} 10/10 450 м
[]
+11.5 +8.8 83 +6 +6 1009.4 1008.3
ЮЗ 23 5000 м дымка 10/10 300 м
[]
+11.3 +8.8 85 +6 +6 1009.8 1008.4
З 23 5000 м дымка 10/10 300 м
[]
+11.2 +8.8 85 +5 +5 1010.3 1008.9
З 23-28
{31}
4800 м дымка {дождь} 10/10 330 м
[]
+11.0 +9.0 87 +5 +5 1010.4 1009.1
З 20 4500 м дымка 10/9 600 м
[]
+10.7 +9.0 89 +5 +5 1011.4 1010.3
З 23 4300 м дымка 10/10 300 м
[]
+10.7 +8.9 89 +5 +5 1010.6 1009.3
З 13-17
{27}
5000 м слаб. ливневой дождь 10/10 210 м
[]
+10.2 +9.1 93 +5 +5 1013.9 1012.7 0.9
З 10 15 км в посл. час дождь {ливн. осадки} 10/10 1000 м
[]
+10.7 +6.9 77 +7 +7 1016.3 1014.8
СЗ 7 21 км {ливн. осадки, дымка} 10/10
[]
+9.7 +4.4 70 +6 +6 1017.8 1016.6
СЗ 7-11
{17}
23 км {ливн. осадки, дымка} 10/10 1500 м
[]
+9.1 +3.9 70 +5 +5 1019.6 1018.3 +12.1
СЗ 7 40 км 10/10
[]
+8.5 0.0 55 +5 +5 1022.4 1021.2
СЗ 7 30 км 10/10
[]
+9.1 +2.5 63 +5 +5 1021.3 1020.1
СЗ 6-9
{12}
30 км 10/0
[]
+8.0 -0.7 54 +4 +4 1023.1 1021.9
СЗ 5-7
{10}
24 км 10/10
[]
+7.5 +0.3 60 +4 +4 1024.1 1022.8
СЗ 4-6
{7}
21 км 10/10
[]
+7.1 +1.1 66 +4 +4 1024.1 1022.9
СЗ 4-6
{10}
29 км 10/10
[]
+7.0 +0.3 62 +4 +4 1024.1 1022.8
З 2-2
{3}
18 км 10/10 2000 м
[]
+6.8 +0.8 66 +5 +5 1023.9 1022.8
СЗ 2-4
{4}
22 км 10/10
[]
+6.8 +0.5 64 +5 +5 1024.2 1022.9
Ю 5-5
{5}
20 км 9/9 1500 м
[]
+6.5 +2.5 76 +2 +2 1023.2 1022.1
Ю 4 25 км 10/10 1500 м
[]
+6.4 +2.6 77 +3 +3 1022.5 1021.5
Ю 4 30 км 10/10 1000 м
[]
+6.5 +2.3 75 +3 +3 1021.4 1020.3
Ю 7-10
{10}
40 км слаб. морось 10/10 960 м
[]
+6.4 +2.2 74 +2 +2 1019.7 1018.7 +6.3 0.9
ЮВ 10 2400 м слаб. дождь {морось} 10/6 300 м
[]
+5.1 +4.3 95 -2 -2 1016.7 1015.6 0.4
Ю 9 10 км слаб. ливневой дождь 10/10 600 м
[]
+5.4 +3.2 86 -1 -1 1018.6 1017.4 0.2
Ю 11-13
{13}
2900 м слаб. дождь {морось} 10/10 90 м
[]
+5.6 +5.0 96 -1 -1 1013.9 1012.9 0.1
Ю 10 4000 м в посл. час дождь {ливн. осадки} 10/10 100 м
[]
+7.7 +7.2 97 +2 +2 1012.5 1011.4
ЮЗ 14 10 км морось {ливн. осадки, дождь} 10/6 300 м
[]
+10.2 +9.3 94 +5 +5 1011.3 1010.2 0.3
ЮЗ 16-20
{23}
23 км в посл. час дождь {ливн. осадки, морось} 10 баллов +10.6 +8.7 88 +5 +5 1009.3 1008.3 1
ЮЗ 18 5000 м слаб. ливневой дождь 10/10 600 м
[]
+10.3 +8.1 86 +5 +5 1006.7 1005.6
ЮЗ 17 13 км 10/10 600 м
[]
+10.6 +8.1 85 +5 +5 1008.2 1007.0
ЮЗ 17-22
{23}
3200 м морось с дождем {ливн. осадки} 10/10 240 м
[]
+9.7 +8.5 92 +4 +4 1005.9 1005.0 0.8
ЮЗ 16 5000 м морось с дождем {ливн. осадки} 10/8 300 м
[]
+9.7 +8.5 92 +4 +4 1004.9 1003.9 1
ЮЗ 16 16 км в посл. час дождь {ливн. осадки, морось} 10/10 300 м
[]
+10.0 +8.3 89 +4 +4 1004.4 1003.5 0.4
ЮЗ 17-22
{23}
17 км {ливн. осадки, дождь} 10/10 360 м
[]
+10.1 +8.1 87 +4 +4 1004.2 1003.1 +11.1
ЮЗ 15 14 км 10/10 300 м
[]
+10.3 +8.5 89 +5 +5 1003.9 1002.7
ЮЗ 16 11 км 10/10 300 м
[]
+10.3 +8.3 87 +5 +5 1004.1 1003.1
ЮЗ 16-20
{22}
10 км 10/10 360 м
[]
+10.3 +8.2 87 +5 +5 1003.7 1002.4
ЮЗ 15-19
{19}
10 км 10/9 1000 м
[]
+10.1 +7.8 86 +5 +5 1003.6 1002.3
З 15-17
{18}
8000 м дымка 10/10 1000 м
[]
+9.6 +7.6 87 +4 +4 1003.8 1002.5
З 12-15
{20}
6000 м дымка 10/10 750 м
[]
+9.1 +7.6 90 +4 +4 1004.0 1002.8
З 9-14
{14}
14 км 10/6 600 м
[]
+8.7 +3.8 71 +4 +4 1003.7 1002.5
З 10-12
{13}
8000 м дымка 10/10 1000 м
[]
+9.0 +6.4 84 +4 +4 1003.8 1002.7
З 6-9
{14}
22 км 8 баллов +8.3 +3.1 70 +4 +4 1003.4 1002.3
З 11 14 км 8/6 1000 м
[]
+8.0 +5.1 82 +3 +3 1002.8 1001.5
З 12 15 км ясно +7.9 +4.5 79 +2 +2 1002.4 1001.2
З 12-15
{16}
18 км 6/6 570 м
[]
+7.8 +3.9 76 +2 +2 1001.9 1000.8 +7.8 3.8
З 12 20 км 3/3 600 м
[]
+7.5 +2.8 72 +2 +2 1001.7 1000.4
З 11 20 км 1/1 600 м
[]
+7.4 +2.4 71 +2 +2 1001.7 1000.5
З 11 27 км 5/5 660 м
[]
+7.6 +3.3 74 +2 +2 1001.9 1000.6
З 12-14
{15}
18 км 4/4 600 м
[]
+8.1 +3.5 73 +3 +3 1001.2 1000.0
З 12-15
{17}
14 км 9/8 600 м
[]
+8.2 +4.1 75 +3 +3 1000.8 999.7
З 10-12
{17}
18 км 1/1 1380 м
[]
+8.6 +4.3 74 +4 +4 1000.2 999.1
З 11-14
{14}
14 км 10/10
[]
+8.2 +3.5 72 +3 +3 998.4 997.2
З 13-16
{16}
13 км 10/8 1500 м
[]
+8.5 +4.2 74 +3 +3 999.2 998.1
З 10-13
{14}
14 км 10/10 570 м
[]
+8.1 +4.6 79 +3 +3 997.7 996.6
ЮЗ 11-13
{14}
30 км 10/6 600 м
[]
+6.6 +3.6 81 +1 +1 997.2 995.9
ЮЗ 8-10
{11}
24 км слаб. морось с дождем 10/8 600 м
[]
+6.3 +4.1 86 +1 +1 997.0 995.8
ЮЗ 6-8
{14}
40 км в посл. час дождь {ливн. осадки, морось} 10 баллов +5.1 +3.0 86 0 0 996.3 995.2 +8.9 0.3
З 7-11
{12}
9000 м гроза, ливневой дождь 10/6 600 м
[]
+5.0 +3.1 88 -1 -1 994.7 993.5 0.5
ЮЗ 6-8
{8}
45 км 10/10
[]
+5.1 +3.2 88 -0 -0 995.7 994.6
ЮЗ 9-11
{17}
12 км морось {гроза, дождь} 10/10 330 м
[]
+4.1 +2.6 90 -3 -3 994.0 992.9 2
ЮЗ 12-16
{16}
7000 м морось с дождем {гроза} 10/10 300 м
[]
+4.3 +3.0 91 -3 -3 992.7 991.8 0.8
З 10-13
{13}
10 км слаб. дождь {гроза, морось} 10/6 300 м
[]
+3.8 +1.7 86 -3 -3 992.9 991.8 1
З 7-11
{17}
9000 м морось с дождем {гроза} 10/10 210 м
[]
+3.1 +1.9 92 -3 -3 993.5 992.4 2
З 9-13
{15}
23 км слаб. дождь {морось} 10/8 300 м
[]
+5.1 +2.1 81 -1 -1 993.5 992.2 2
З 10-13
{14}
17 км слаб. морось {дождь} 10/6 600 м
[]
+4.3 +1.3 81 -2 -2 993.6 992.3 0.1
СЗ 8-12
{15}
23 км в посл. час дождь {ливн. осадки} 10/10 500 м
[]
+5.0 +1.9 80 -1 -1 993.8 992.6
СЗ 10-14
{14}
26 км в посл. час дождь {ливн. осадки} 10/6 600 м
[]
+5.0 +1.4 78 -1 -1 994.4 993.0
З 8-13
{15}
22 км слаб. морось {дождь} 10/6 600 м
[]
+4.8 +1.4 79 -1 -1 995.1 993.9
СЗ 8-12
{15}
21 км слаб. морось с дождем 9 баллов +4.2 +1.4 82 -2 -2 995.8 994.6 +2.5 8
СЗ 8-12
{16}
16 км слаб. ливневой дождь {морось} 10/6 600 м
[]
+4.3 +1.4 81 -2 -2 998.1 996.8 0.4
СЗ 8-13
{14}
17 км слаб. ливневой дождь {морось} 10/8 600 м
[]
+4.1 +1.3 82 -2 -2 996.9 995.6 0.1
СЗ 7-15
{16}
26 км в посл. час дождь {ливн. осадки, морось} 10/10 500 м
[]
+5.3 +0.7 72 0 0 998.9 997.9 0.1
З 12 21 км в посл. час дождь {ливн. осадки, морось} 10/6 1000 м
[]
+5.5 +1.1 73 -1 -1 1000.2 998.7 0.2
З 10 25 км в посл. час дождь {ливн. осадки, морось} 10/8 600 м
[]
+5.3 +1.1 74 -1 -1 1001.1 1000.0 0.1
З 10-13
{16}
23 км в посл. час дождь {ливн. осадки, морось} 10/10 600 м
[]
+5.9 +1.3 72 0 0 1002.0 1000.7 0.1
З 9 26 км в посл. час дождь {ливн. осадки, морось} 9/8 600 м
[]
+5.7 +1.6 75 0 0 1003.3 1002.0
З 9 10 км слаб. морось 10/6 600 м
[]
+5.3 +1.4 76 -1 -1 1002.6 1001.4
З 7-10
{18}
20 км в посл. час морось {ливн. осадки, дождь} 9/9 570 м
[]
+6.1 +2.3 77 +1 +1 1004.0 1002.7
З 8 22 км слаб. морось {дождь} 10/6 600 м
[]
+6.1 +1.7 73 +1 +1 1004.6 1003.4
З 9 30 км в посл. час морось {ливн. осадки, дождь} 9/9 1500 м
[]
+6.1 +1.5 72 +1 +1 1005.2 1003.9
З 9-12
{14}
40 км {ливн. осадки, морось} 6/6 930 м
[]
+6.6 +0.7 66 +1 +1 1005.8 1004.5 +6.8
СЗ 11 30 км слаб. ливневой дождь 10/9 600 м
[]
+5.1 +0.7 73 -1 -1 1006.5 1005.1
З 8 35 км 10/6 1000 м
[]
+6.9 +0.8 65 +2 +2 1006.0 1004.8
СЗ 4-6
{15}
45 км в посл. час гроза без осадков {ливн. осадки} 9/9 900 м
[]
+5.3 +1.1 74 +1 +1 1006.6 1005.3 0.2
З 8-11
{11}
29 км в посл. час дождь {гроза, ливн. осадки} 10/8 1500 м
[]
+6.5 0.0 63 +2 +2 1006.7 1005.5 0.1
З 7-10
{10}
30 км {гроза, ливн. осадки} 10/10
[]
+6.3 -0.9 60 +2 +2 1006.6 1005.4
З 6-9
{11}
30 км {гроза, ливн. осадки} 10/4 1050 м
[]
+6.1 -1.4 59 +2 +2 1006.1 1004.9
ЮЗ 8-9
{9}
22 км 10/10
[]
+4.0 +1.5 84 -2 -2 1005.3 1004.2
ЮЗ 6-8
{8}
23 км 10/9 1500 м
[]
+4.9 +0.8 75 -0 -0 1005.8 1004.7
Ю 6-8
{9}
22 км 10/10
[]
+4.1 +1.5 83 -1 -1 1004.2 1003.1
Ю 7 27 км 10/10 2000 м
[]
+4.0 +1.5 84 -2 -2 1003.2 1002.1
Ю 7 26 км 10/10 2000 м
[]
+4.1 +1.8 85 -2 -2 1002.0 1000.9
Ю 6-8
{11}
15 км слаб. морось с дождем 10/10 240 м
[]
+3.7 +2.2 90 -2 -2 1001.1 1000.0 +3.5 0.3 1.6
ЮВ 8 11 км сильн. морось {дождь} 10/6 200 м
[]
+3.4 +2.2 92 -3 -3 998.5 997.5 0.5
Ю 8 11 км морось {дождь} 10/6 300 м
[]
+3.6 +2.3 91 -3 -3 999.8 998.7 0.1
ЮВ 9-10
{11}
13 км морось с дождем 10/10 210 м
[]
+3.7 +2.4 91 -3 -3 997.0 995.8 0.3
ЮВ 8 11 км дождь {морось} 10/9 300 м
[]
+3.4 +2.1 91 -3 -3 995.9 994.7 0.8
В 7 11 км дождь {морось} 10/9 300 м
[]
+2.8 +1.5 91 -4 -3 994.9 993.7 2
СВ 4-6
{11}
8000 м дождь {морось} 10/10 120 м
[]
+2.1 +1.1 93 -3 -3 994.6 993.4 2
СЗ 5 1500 м снег 10/9 200 м
[]
+0.8 +0.1 95 -5 -5 996.6 995.3 2
СВ 2 3900 м снег 10/10 300 м
[]
+1.0 +0.6 97 -3 -3 994.9 993.7 3
СЗ 4-8
{8}
22 км слаб. морось {дождь} 10/10 150 м
[]
+3.1 +2.4 95 -2 -2 998.4 997.1 0.5
СЗ 9 35 км в посл. час дождь {морось} 10/6 600 м
[]
+5.1 +2.1 81 -1 -1 1000.4 999.0 0.3
СЗ 10 24 км слаб. ливневой дождь {морось} 9/8 600 м
[]
+5.4 +1.0 73 -1 -1 1002.6 1001.3 0.3
СЗ 10-16
{17}
35 км в посл. час дождь {ливн. осадки} 8/8 930 м
[]
+5.6 -0.2 66 -0 -0 1004.8 1003.6 +5.7
СЗ 9 35 км 3/1 1000 м
[]
+5.9 -1.8 58 +1 +1 1008.5 1007.2
СЗ 9 40 км 1/1 1000 м
[]
+5.7 -1.3 61 0 0 1006.8 1005.4
СЗ 8 40 км 4/4 1500 м
[]
+6.0 -1.8 57 +1 +1 1010.1 1008.7
СЗ 7-11
{12}
30 км 8/8 1500 м
[]
+6.2 -0.2 64 +1 +1 1011.3 1010.1
З 7-10
{11}
30 км 1/1 1000 м
[]
+5.8 -0.4 64 +1 +1 1012.4 1011.1
Местоположение метеостанции Флиссинген (Нидерланды): широта 51.45 долгота 3.60 высота над уровнем моря 10 м.
В архиве по умолчанию представлена погода в Флиссингене за последнюю неделю. Архивные данные за месяц целиком и за предыдущие месяцы, начиная с января 2011 года, Вы можете получить, выбрав интересующий диапазон дат из раскрывающегося списка и нажав кнопку "Найти!".
*Определитесь, кто Вы:
Внимание! Время в таблицах - всемирное. Для получения местного времени необходимо прибавить поправку, которая равна 1 ч.
Смотрите также архив погоды в соседних городах и на ближайших метеорологических станциях:
Партнеры нашего сайта:      
Пояснения к столбцам:
  • Ветер - указаны скорость ветра в м/с - средняя за 10 мин, порывы в срок и между сроками (в фигурных скобках) и направление, откуда дует ветер: С - северный,
  • СВ - северо-восточный, В - восточный, ЮВ - юго-восточный, Ю - южный, ЮЗ - юго-западный, З - западный, СЗ - северо-западный.
  • Видимость - горизонтальная дальность видимости в метрах или километрах. При видимости от 1 до 10 км при отсутствии осадков обычно наблюдается дымка, при ухудшении видимости до 1 км и менее - туман. В сухую погоду видимость может ухудшаться дымом, пылью или мглою.
  • Явления - указаны атмосферные явления, наблюдавшиеся в срок или в последний час перед сроком; фигурными скобками обозначены явления, наблюдавшиеся между сроками (за 1-3 часа до срока); квадратными скобками обозначены град или гололедные отложения с указанием их диаметра в мм.
  • Облачность - указаны через наклонную черту общая и нижняя облачность в баллах и высота нижней границы облаков в метрах; квадратными скобками обозначены формы облаков: Ci - перистые, Cs - перисто-слоистые, Cc - перисто-кучевые, Ac - высококучевые, As - высокослоистые, Sc - слоисто-кучевые, Ns - слоисто-дождевые, Cu - кучевые, Cb - кучево-дождевые. Подробнее классификацию облаков см. в Атласе облаков (PDF).
  • T - Температура воздуха - температура, измеренная на высоте 2 м над землей.
  • Td - Температура точки росы - температура, при понижении до которой содержащийся в воздухе водяной пар достигнет насыщения.
  • f - Относительная влажность воздуха - влажноcть воздуха, измеренная на высоте 2 м над землей.
  • Te - Эффективная температура - температура, которую ощущает одетый по сезону человек в тени. Характеристика душности погоды. При расчете учитывается влияние влажности воздуха и скорости ветра на теплоощущения человека.
  • Tes - Эффективная температура на солнце - температура, которую ощущает человек, с поправкой на солнечный нагрев. Характеристика знойности погоды. Зависит от высоты солнца над горизонтом, облачности и скорости ветра. Ночью, в пасмурную погоду, а также при ветре 12 м/с и более поправка равна нулю.
  • P - Атмосферное давление - приведенное к уровню моря атмосферное давление.
  • Po - Атмосферное давление - измеренное на уровне метеостанции атмосферное давление.
  • Tmin - Минимальная температура - минимум температуры воздуха на высоте 2 м над землей.
  • Tmax - Максимальная температура - максимум температуры воздуха на высоте 2 м над землей.
  • R - Количество осадков - Количество выпавших осадков за период времени, мм. При наведении курсора мыши на число - период времени, за который выпало указанное количество осадков.
  • R24 - Количество осадков - Количество выпавших осадков за 24 часа, мм.
  • S - Снежный покров - Высота снежного покрова, см. При наведении курсора мыши на число - состояние снежного покрова и степень покрытия местности в баллах.